Temp
-7 -8 -8 -8 -8 -8 -8 -8 -9 -9 -9 -9 -9 -9 -9 -8 -8 -8 -8 -8 -8 -8 -8 -8 -8 -8 -8 -8 -8 -8 -8 -8 -8 -7 -7 -7 -7 -7 -8 -8 -8 -8 -8
-7 -8 -8 -8 -8 -8 -8 -8 -9 -9 -9 -9 -9 -9 -8 -8 -8 -8 -8 -8 -9 -9 -9 -9 -9 -9 -9 -8 -8 -8 -8 -8 -8 -7 -7 -7 -7 -8 -8 -8 -8 -7 -7
-7 -8 -8 -8 -8 -8 -8 -8 -9 -9 -9 -9 -9 -8 -8 -8 -8 -8 -8 -9 -9 -9 -9 -9 -9 -9 -9 -9 -8 -8 -8 -8 -8 -8 -8 -7 -8 -8 -7 -7 -7 -7 -7
-7 -7 -8 -8 -8 -8 -8 -8 -9 -9 -9 -9 -8 -8 -8 -8 -8 -9 -9 -9 -9 -9 -10 -9 -9 -9 -9 -9 -9 -8 -8 -8 -8 -8 -8 -7 -8 -7 -7 -7 -7 -7 -7
-7 -7 -8 -8 -8 -8 -8 -8 -9 -9 -9 -8 -8 -8 -8 -9 -9 -8 -9 -9 -9 -9 -10 -10 -10 -10 -10 -9 -9 -9 -8 -8 -8 -8 -8 -8 -7 -7 -7 -7 -7 -7 -7
-7 -7 -8 -8 -8 -7 -8 -8 -8 -8 -8 -9 -9 -9 -9 -9 -8 -8 -8 -9 -9 -10 -10 -10 -10 -10 -10 -9 -9 -9 -8 -8 -8 -8 -8 -8 -7 -7 -7 -7 -7 -7 -7
-7 -7 -8 -8 -8 -7 -8 -8 -8 -8 -8 -8 -9 -9 -9 -9 -9 -9 -9 -9 -9 -10 -10 -10 -10 -9 -9 -9 -9 -9 -9 -8 -8 -8 -8 -8 -7 -7 -7 -7 -7 -7 -7
-7 -7 -8 -8 -8 -8 -8 -8 -8 -8 -8 -8 -9 -9 -9 -9 -9 -9 -9 -10 -9 -10 -10 -10 -9 -10 -10 -9 -9 -9 -9 -8 -8 -8 -8 -7 -7 -7 -7 -7 -7 -7 -7
-7 -7 -7 -7 -8 -8 -8 -8 -8 -8 -8 -8 -9 -9 -9 -9 -9 -9 -9 -10 -10 -10 -10 -10 -9 -10 -9 -9 -9 -8 -9 -8 -8 -8 -7 -7 -7 -7 -7 -7 -7 -7 -7
-7 -7 -7 -7 -8 -8 -8 -8 -8 -8 -8 -8 -9 -9 -9 -9 -9 -9 -9 -9 -10 -10 -10 -10 -10 -10 -10 -9 -9 -9 -8 -8 -8 -8 -7 -7 -7 -7 -7 -7 -7 -7 -7
-6 -7 -7 -7 -7 -8 -8 -8 -8 -8 -9 -8 -8 -9 -9 -9 -9 -9 -9 -10 -10 -10 -10 -10 -11 -10 -10 -10 -9 -9 -9 -8 -8 -7 -7 -7 -7 -7 -7 -7 -7 -7 -7
-7 -7 -7 -7 -7 -8 -8 -8 -8 -8 -8 -8 -8 -9 -9 -9 -9 -9 -9 -10 -10 -10 -10 -10 -10 -10 -9 -9 -9 -9 -9 -8 -8 -7 -8 -8 -7 -8 -8 -7 -7 -7 -7
-6 -6 -7 -7 -7 -7 -7 -8 -8 -8 -8 -8 -8 -8 -9 -9 -9 -9 -9 -9 -9 -9 -9 -9 -9 -9 -9 -9 -9 -9 -9 -9 -8 -8 -8 -8 -8 -8 -8 -8 -7 -8 -7
-6 -6 -7 -7 -7 -7 -7 -8 -8 -8 -8 -8 -8 -8 -9 -9 -9 -9 -9 -9 -8 -8 -9 -9 -9 -9 -8 -8 -8 -8 -9 -8 -8 -8 -8 -8 -8 -8 -8 -8 -8 -8 -7
-7 -6 -7 -7 -7 -7 -7 -7 -8 -8 -8 -8 -8 -8 -9 -9 -9 -8 -8 -8 -8 -8 -8 -8 -8 -8 -8 -8 -8 -8 -8 -8 -8 -8 -8 -8 -8 -8 -8 -8 -8 -8 -8
-6 -7 -6 -7 -7 -7 -7 -7 -7 -8 -8 -8 -8 -8 -8 -8 -9 -8 -8 -8 -8 -8 -8 -8 -8 -8 -8 -8 -8 -8 -9 -8 -8 -8 -8 -8 -8 -8 -8 -8 -8 -8 -8
-7 -6 -6 -7 -7 -7 -6 -7 -8 -7 -8 -8 -8 -8 -8 -8 -8 -8 -8 -8 -8 -8 -8 -8 -7 -8 -8 -8 -8 -8 -9 -8 -8 -7 -8 -8 -8 -8 -9 -9 -8 -9 -9
-6 -6 -7 -7 -7 -7 -7 -7 -7 -7 -7 -8 -8 -8 -8 -8 -8 -8 -8 -8 -8 -8 -7 -7 -7 -8 -8 -8 -8 -8 -8 -8 -8 -7 -7 -8 -8 -9 -9 -9 -9 -9 -9
-6 -6 -6 -7 -7 -7 -7 -7 -7 -8 -7 -8 -8 -8 -7 -8 -8 -8 -8 -8 -8 -8 -8 -7 -7 -7 -8 -8 -8 -8 -9 -8 -8 -8 -8 -8 -8 -8 -9 -9 -9 -9 -9
-6 -6 -6 -6 -6 -6 -7 -7 -7 -7 -7 -7 -7 -7 -7 -8 -8 -7 -7 -7 -8 -7 -7 -7 -8 -7 -7 -8 -8 -8 -9 -9 -9 -9 -9 -9 -8 -9 -9 -9 -9 -9 -9
-6 -7 -6 -6 -6 -7 -6 -7 -7 -7 -7 -7 -7 -7 -7 -7 -8 -7 -7 -7 -7 -7 -7 -7 -7 -7 -7 -8 -8 -8 -8 -9 -9 -9 -9 -9 -9 -9 -9 -9 -9 -9 -9
-6 -6 -6 -7 -7 -6 -6 -7 -8 -8 -8 -7 -8 -7 -7 -7 -8 -7 -7 -7 -7 -7 -7 -7 -7 -7 -7 -8 -7 -8 -8 -9 -9 -9 -9 -9 -9 -9 -9 -9 -9 -9 -9
-6 -6 -6 -6 -6 -7 -7 -6 -7 -7 -7 -7 -7 -7 -7 -7 -7 -7 -7 -7 -7 -7 -7 -7 -7 -7 -7 -7 -7 -8 -8 -9 -9 -9 -9 -9 -9 -9 -9 -9 -9 -9 -9
-6 -6 -6 -6 -6 -6 -7 -7 -7 -7 -7 -7 -7 -7 -7 -7 -7 -7 -7 -7 -7 -7 -7 -7 -7 -7 -7 -7 -7 -8 -8 -9 -9 -9 -9 -9 -9 -9 -9 -9 -9 -9 -9
-5 -6 -6 -6 -6 -6 -6 -6 -7 -7 -7 -7 -7 -7 -7 -7 -7 -7 -7 -7 -7 -7 -7 -7 -7 -7 -7 -7 -7 -8 -8 -9 -9 -9 -9 -9 -9 -9 -9 -9 -9 -9 -9
-6 -6 -6 -6 -6 -6 -6 -6 -6 -7 -7 -7 -7 -7 -7 -7 -7 -7 -7 -7 -7 -7 -7 -7 -7 -7 -7 -7 -7 -8 -8 -8 -9 -9 -9 -9 -9 -9 -9 -9 -9 -9 -9
Height
5892 5892 5893 5893 5892 5892 5892 5892 5892 5893 5893 5892 5894 5895 5896 5898 5899 5899 5900 5900 5901 5900 5900 5900 5900 5900 5900 5900 5900 5901 5901 5903 5905 5906 5907 5906 5908 5909 5911 5912 5912 5912 5912
5893 5894 5893 5894 5895 5894 5894 5893 5893 5893 5893 5894 5895 5896 5897 5898 5899 5900 5900 5900 5900 5900 5900 5900 5900 5900 5900 5901 5902 5903 5904 5905 5906 5908 5909 5910 5911 5912 5913 5914 5914 5914 5914
5896 5895 5895 5895 5895 5895 5895 5895 5894 5893 5894 5895 5896 5897 5898 5898 5899 5899 5899 5899 5900 5900 5900 5900 5900 5901 5902 5903 5904 5905 5905 5907 5908 5909 5911 5912 5913 5914 5915 5916 5916 5916 5916
5899 5898 5898 5897 5896 5895 5895 5895 5894 5895 5894 5895 5896 5897 5898 5899 5899 5899 5899 5899 5899 5899 5899 5900 5902 5903 5905 5905 5906 5907 5908 5909 5910 5911 5913 5915 5915 5917 5917 5918 5918 5919 5919
5901 5900 5900 5899 5899 5899 5899 5897 5896 5895 5896 5897 5898 5899 5901 5902 5902 5901 5900 5899 5899 5900 5900 5902 5904 5904 5906 5907 5909 5910 5910 5911 5912 5913 5915 5916 5917 5919 5920 5919 5920 5922 5923
5904 5903 5903 5902 5902 5901 5900 5899 5898 5897 5898 5898 5899 5900 5902 5903 5903 5902 5902 5902 5901 5903 5904 5906 5907 5907 5908 5910 5911 5912 5912 5913 5914 5915 5917 5919 5920 5921 5923 5923 5924 5925 5925
5908 5906 5905 5905 5904 5904 5903 5902 5902 5901 5901 5901 5902 5903 5904 5905 5906 5906 5906 5906 5906 5907 5908 5908 5909 5910 5912 5913 5913 5913 5914 5915 5916 5918 5920 5922 5923 5924 5926 5926 5928 5928 5929
5912 5909 5909 5908 5907 5906 5906 5906 5906 5906 5906 5906 5907 5907 5907 5908 5909 5909 5909 5910 5910 5911 5911 5912 5913 5914 5914 5914 5914 5915 5916 5917 5919 5921 5922 5924 5925 5928 5929 5930 5931 5931 5931
5915 5913 5912 5911 5910 5910 5909 5909 5909 5910 5909 5910 5910 5910 5911 5911 5912 5912 5913 5913 5914 5914 5915 5914 5914 5915 5916 5916 5917 5918 5919 5921 5922 5924 5926 5927 5929 5931 5932 5933 5934 5934 5934
5917 5916 5915 5914 5913 5913 5912 5912 5912 5913 5913 5913 5913 5914 5914 5914 5916 5917 5917 5918 5917 5916 5916 5915 5916 5917 5918 5919 5919 5920 5922 5923 5925 5927 5929 5930 5932 5934 5935 5936 5937 5937 5937
5919 5919 5919 5918 5916 5916 5915 5915 5916 5916 5916 5917 5917 5917 5917 5918 5919 5919 5920 5920 5919 5919 5919 5918 5918 5918 5921 5922 5922 5923 5924 5926 5928 5930 5932 5933 5935 5937 5939 5939 5940 5940 5940
5921 5920 5921 5921 5920 5919 5919 5919 5919 5919 5920 5920 5920 5920 5920 5921 5921 5923 5922 5922 5922 5922 5921 5922 5921 5923 5924 5924 5925 5926 5927 5928 5931 5933 5935 5937 5939 5941 5942 5943 5943 5943 5943
5923 5923 5923 5923 5923 5923 5922 5922 5922 5922 5923 5924 5924 5924 5925 5925 5925 5926 5926 5925 5925 5926 5926 5926 5926 5927 5928 5928 5928 5929 5931 5933 5935 5937 5938 5941 5943 5944 5945 5946 5947 5947 5947
5924 5926 5925 5925 5926 5926 5925 5925 5926 5926 5926 5927 5928 5928 5928 5929 5929 5929 5928 5928 5928 5929 5931 5931 5931 5931 5932 5933 5934 5934 5935 5937 5939 5941 5942 5945 5946 5947 5948 5949 5950 5951 5951
5926 5927 5927 5927 5927 5928 5928 5928 5928 5928 5929 5930 5932 5932 5932 5932 5933 5932 5932 5932 5932 5933 5934 5934 5934 5935 5936 5937 5938 5939 5940 5943 5945 5946 5947 5948 5950 5951 5952 5952 5953 5954 5954
5927 5928 5929 5929 5930 5931 5932 5931 5931 5930 5931 5932 5933 5934 5935 5935 5935 5936 5936 5936 5936 5936 5937 5938 5938 5939 5939 5941 5943 5944 5946 5948 5949 5950 5951 5952 5954 5955 5955 5956 5956 5957 5958
5928 5928 5930 5931 5932 5933 5934 5935 5934 5933 5934 5934 5935 5936 5936 5937 5938 5939 5939 5939 5940 5941 5941 5942 5943 5943 5944 5945 5947 5949 5951 5953 5953 5954 5955 5956 5957 5958 5959 5959 5960 5960 5961
5928 5930 5931 5932 5934 5936 5936 5936 5938 5937 5937 5937 5937 5939 5939 5940 5941 5942 5943 5943 5944 5944 5945 5945 5946 5947 5948 5949 5951 5953 5956 5957 5957 5957 5958 5959 5959 5960 5961 5962 5963 5963 5963
5929 5930 5932 5934 5935 5937 5937 5938 5939 5939 5940 5939 5940 5942 5942 5943 5944 5944 5945 5946 5946 5947 5948 5949 5949 5951 5951 5953 5955 5956 5959 5961 5961 5961 5961 5961 5962 5963 5964 5965 5966 5967 5967
5929 5931 5933 5934 5936 5938 5939 5940 5940 5941 5943 5943 5943 5944 5945 5946 5947 5947 5949 5949 5949 5950 5950 5952 5953 5953 5955 5956 5958 5959 5961 5963 5964 5966 5966 5967 5967 5967 5967 5968 5969 5970 5970
5929 5932 5934 5935 5938 5939 5940 5940 5942 5942 5944 5946 5947 5946 5946 5947 5949 5950 5951 5952 5953 5953 5954 5955 5955 5956 5957 5958 5960 5962 5963 5965 5966 5968 5969 5970 5971 5971 5972 5972 5972 5972 5973
5929 5932 5934 5936 5938 5940 5941 5940 5942 5943 5945 5947 5948 5948 5949 5950 5951 5952 5953 5954 5956 5956 5956 5956 5957 5958 5959 5959 5961 5964 5965 5967 5968 5970 5972 5972 5974 5975 5975 5975 5975 5975 5976
5930 5932 5934 5937 5939 5939 5941 5942 5943 5945 5947 5948 5948 5949 5950 5951 5952 5953 5954 5955 5956 5957 5958 5958 5959 5960 5961 5961 5962 5964 5966 5968 5969 5971 5973 5975 5976 5977 5978 5978 5978 5978 5978
5929 5931 5934 5936 5938 5940 5941 5943 5944 5945 5948 5949 5949 5950 5951 5952 5953 5954 5955 5955 5957 5958 5959 5960 5960 5961 5962 5963 5964 5964 5966 5968 5970 5971 5973 5975 5976 5978 5979 5979 5979 5979 5979
5927 5929 5933 5934 5936 5938 5941 5943 5944 5946 5947 5949 5950 5950 5951 5951 5952 5953 5955 5956 5956 5958 5960 5960 5962 5962 5963 5965 5965 5965 5965 5968 5970 5972 5973 5975 5977 5978 5979 5980 5981 5981 5980
5925 5928 5932 5934 5935 5936 5939 5941 5943 5945 5946 5948 5949 5950 5951 5951 5951 5952 5953 5955 5956 5957 5958 5960 5962 5963 5963 5965 5966 5965 5966 5968 5970 5972 5974 5975 5977 5978 5980 5980 5982 5982 5981
Wind_Speed
17 16 15 14 14 12 11 10 9 9 10 12 12 13 12 11 10 8 9 8 8 9 9 11 12 12 13 13 13 14 15 15 16 16 19 21 21 19 18 17 17 16 15
17 16 15 16 16 15 13 11 9 7 7 9 11 11 11 10 9 8 7 6 6 8 8 10 11 11 12 12 14 15 15 17 18 19 20 22 21 18 17 17 17 17 17
16 17 16 16 18 17 16 13 11 8 8 8 9 9 10 9 8 8 7 5 5 7 8 9 10 11 12 12 14 16 17 18 20 20 20 22 20 18 17 17 19 21 21
16 18 17 19 19 18 17 17 15 11 10 11 10 10 10 9 9 8 7 5 4 6 8 9 10 8 10 12 14 16 17 18 19 20 20 19 19 17 17 17 20 20 19
16 18 18 19 19 18 19 20 18 16 14 14 13 12 12 12 13 12 8 6 8 11 10 9 14 14 15 13 15 15 16 18 19 19 19 18 18 17 16 18 19 18 19
16 17 18 19 18 19 21 22 22 20 17 14 15 16 17 18 18 18 16 18 22 22 21 19 16 14 15 13 14 15 16 17 19 19 19 19 18 17 17 18 18 18 19
15 16 18 17 19 20 20 21 22 22 21 19 18 18 18 18 18 19 21 23 23 21 18 17 17 15 14 13 13 14 15 16 17 19 18 18 18 17 17 18 19 18 19
14 17 17 17 18 19 19 20 21 21 21 19 18 18 17 16 17 18 19 19 18 18 17 17 16 14 16 13 12 13 15 15 15 17 18 18 18 17 18 19 19 19 19
15 15 16 17 17 16 17 18 19 20 19 19 18 17 15 15 16 17 16 16 16 16 15 13 13 14 15 13 10 13 14 15 15 16 17 18 18 18 19 19 20 20 21
15 15 15 16 15 16 15 16 16 19 17 18 17 16 15 15 13 15 16 16 19 18 16 14 12 14 16 13 13 14 13 15 15 16 17 19 19 19 20 20 21 21 22
15 15 15 15 15 15 14 14 14 17 16 17 17 15 16 15 13 13 14 12 15 17 16 20 19 19 17 16 16 15 13 14 15 17 19 21 20 22 21 22 21 21 21
14 15 15 13 16 15 16 16 14 16 15 16 17 16 15 15 14 14 15 13 16 18 17 18 19 21 18 19 19 18 16 17 19 22 23 23 23 23 23 22 21 22 22
11 13 14 13 12 14 14 14 16 16 14 14 15 16 14 15 14 15 17 16 18 20 19 18 20 21 20 21 22 22 22 24 26 26 26 25 25 24 23 22 22 22 23
10 12 14 13 11 11 13 13 13 13 14 12 13 15 17 17 15 16 18 18 20 22 19 21 22 23 22 22 22 24 26 27 28 27 27 26 25 24 23 23 23 22 22
10 11 11 13 10 9 11 14 14 14 14 12 12 14 15 14 14 14 18 18 20 21 20 19 20 22 22 21 22 25 28 28 28 27 27 26 25 24 24 24 23 22 23
11 10 11 12 11 9 9 13 14 14 14 14 13 14 13 14 13 14 16 17 17 18 18 18 19 19 20 20 20 24 27 26 26 26 26 25 23 23 23 24 23 23 24
10 10 11 12 12 9 8 11 11 12 13 14 14 13 14 13 14 14 14 16 16 16 16 17 18 18 17 18 19 21 23 24 24 23 23 23 22 22 22 22 22 23 23
12 10 11 11 9 10 8 8 10 11 12 13 12 13 14 14 14 12 13 14 14 15 15 16 16 16 16 16 17 19 20 21 21 21 21 20 21 21 22 22 21 21 21
11 11 10 12 9 9 10 7 10 10 10 12 12 11 12 11 11 9 10 14 14 11 12 15 14 14 14 15 14 18 18 17 16 17 19 19 19 19 21 21 20 19 19
11 11 9 10 10 9 9 7 7 9 10 9 9 10 10 9 10 10 11 13 14 12 12 10 11 11 13 13 14 16 17 16 14 13 14 15 16 17 18 18 18 17 18
11 9 9 9 8 8 9 7 7 8 6 10 8 10 10 9 7 10 9 10 11 11 11 11 10 9 10 12 13 14 15 14 14 13 14 13 12 14 15 15 14 14 15
12 11 9 8 9 9 8 11 6 7 7 8 8 8 10 10 8 7 10 8 8 9 11 10 10 9 9 11 12 13 12 14 14 12 12 12 11 10 12 11 10 11 12
10 10 10 9 10 11 8 7 10 8 7 8 8 8 10 9 9 7 8 9 7 8 10 11 10 10 10 10 14 14 11 13 14 13 11 10 10 8 8 8 7 6 8
12 10 9 11 11 11 11 9 9 11 9 7 8 7 8 10 9 9 8 8 9 7 8 8 9 10 9 10 13 13 11 10 13 13 11 9 8 7 7 7 5 3 4
6 10 13 11 12 12 11 10 10 11 11 9 9 8 7 9 10 11 9 7 8 7 8 8 7 9 9 9 12 12 11 9 11 12 11 9 8 7 7 4 3 4 4
8 6 9 12 13 13 13 13 11 11 14 12 11 9 8 8 10 12 12 11 10 9 8 8 8 8 11 10 10 11 11 10 10 12 11 9 7 5 3 5 3 1 2
Wind_Direction
87 85 83 81 83 80 81 79 81 86 98 104 108 110 108 110 106 102 93 97 105 96 95 96 98 105 106 108 105 105 115 121 122 121 118 114 113 107 100 95 92 88 83
82 79 74 73 74 71 69 68 70 80 91 106 114 118 116 112 109 100 89 76 86 91 98 105 101 101 99 102 108 112 120 127 126 120 117 117 113 106 99 90 86 80 81
78 77 75 70 63 60 59 60 58 68 91 102 108 111 109 102 99 90 78 80 87 96 116 113 104 105 107 107 117 121 122 122 122 118 120 121 113 104 97 88 78 81 79
77 76 75 71 64 58 50 45 55 75 94 102 104 107 100 96 88 80 72 57 67 93 108 105 110 119 126 113 123 122 122 121 120 118 119 122 110 102 97 87 81 81 78
82 79 79 76 71 71 64 56 58 70 95 113 103 111 105 91 78 70 73 80 94 104 112 132 120 119 126 116 119 121 120 120 117 118 120 118 109 101 94 85 84 82 79
81 82 83 81 76 68 64 61 60 70 81 91 94 98 90 80 72 75 83 92 99 102 104 110 110 108 112 112 113 116 119 120 119 122 119 114 111 103 90 85 88 83 81
84 86 84 86 77 72 70 68 67 67 72 78 85 87 88 85 82 83 93 100 103 102 104 104 107 110 103 107 109 115 120 119 119 125 123 118 114 103 91 88 89 86 82
82 82 85 85 81 76 74 73 71 72 75 79 84 89 92 89 88 90 94 98 103 105 106 101 99 98 122 89 100 117 119 119 122 126 127 123 112 103 94 93 90 89 78
85 79 79 84 80 78 77 77 75 77 78 79 83 88 90 87 90 95 93 95 95 98 97 100 99 106 111 88 91 110 114 119 123 124 126 123 111 103 98 98 93 85 79
89 82 76 82 87 84 78 74 75 79 80 83 80 84 88 87 88 98 93 88 90 90 92 93 97 99 105 107 102 104 112 120 126 128 127 120 110 106 105 98 93 86 82
94 87 82 80 89 89 85 88 85 83 80 82 84 87 92 94 90 94 97 95 93 94 86 81 96 110 108 104 101 102 110 121 126 127 121 114 112 109 103 97 92 88 87
102 96 86 76 82 91 85 88 89 86 85 78 84 88 93 95 100 103 102 101 91 92 82 81 97 97 105 106 104 103 104 112 119 123 119 115 113 107 103 97 94 90 89
104 100 92 81 73 86 93 90 86 82 88 85 83 83 87 96 102 107 106 102 92 89 84 93 104 104 108 107 105 103 103 110 116 117 116 113 109 106 103 100 95 93 89
113 104 96 89 80 80 88 92 93 82 85 92 90 90 84 97 106 106 108 100 94 94 90 104 107 106 106 104 106 109 110 114 117 116 114 112 109 107 103 99 95 92 88
117 107 99 95 89 88 94 95 97 91 90 96 96 93 96 102 106 112 106 101 96 102 106 109 112 113 111 110 111 113 114 117 116 114 112 110 109 107 104 101 97 93 87
123 119 108 95 94 93 107 100 98 101 101 100 99 92 96 99 109 112 108 109 107 106 103 107 110 116 117 118 116 117 121 120 117 115 112 111 111 108 105 101 97 93 87
130 131 114 102 96 96 102 106 101 99 106 104 106 110 104 102 103 113 120 117 116 111 113 108 108 106 113 114 115 121 125 124 120 112 111 114 113 110 107 101 97 91 85
135 138 126 113 105 106 105 106 105 104 102 105 101 113 112 109 107 110 121 122 119 117 116 114 107 106 107 114 119 126 129 127 126 124 123 122 120 117 112 104 98 90 85
145 142 137 135 126 110 116 108 114 108 100 97 105 115 118 119 116 111 113 120 119 122 121 117 115 110 108 108 123 130 133 131 133 134 131 129 123 121 114 107 98 90 81
162 149 149 148 143 128 121 115 118 116 117 114 115 114 114 121 121 116 114 120 127 132 127 125 130 128 115 115 134 137 137 135 134 131 126 123 125 123 114 107 101 94 81
169 164 163 154 152 148 141 132 113 119 119 127 129 116 116 128 136 131 121 120 127 132 134 139 139 129 131 129 139 138 133 135 137 137 134 130 130 121 114 112 109 98 85
179 174 172 164 167 176 170 148 155 136 164 163 138 139 131 130 141 159 135 131 126 123 129 128 135 141 148 141 142 144 137 141 142 140 137 139 131 119 114 115 109 97 88
183 179 176 182 184 184 181 162 163 184 183 162 157 160 149 148 144 153 153 145 141 141 139 140 142 144 144 148 148 153 146 147 151 147 148 149 136 127 126 116 100 82 73
182 174 191 193 197 197 190 176 180 183 191 183 166 175 160 161 165 159 160 149 158 167 155 154 153 148 143 149 147 148 148 156 162 157 155 157 152 156 151 142 127 64 16
195 178 186 204 204 203 206 192 196 190 194 194 189 183 172 168 172 169 180 165 157 171 175 175 171 161 153 163 156 155 154 157 171 169 162 168 178 178 168 153 107 59 54
209 221 196 199 212 210 211 210 208 194 193 205 210 202 196 177 179 179 184 190 184 182 178 185 188 193 167 173 169 171 167 166 179 179 174 180 195 202 201 177 156 72 29